Flag for U.S.A. Weather past 2 weeks in Pensacola, Florida, U.S.A.

Now
51 °F

Clear.


Feels Like: 47 °F
Forecast: 42 / 56 °F
Wind: 10 mph from Northwest

Location: Pensacola Regional Airport

Current Time: Jan 26, 2015 at 2:27:59 AM

Latest Report: Jan 26, 2015 at 1:53 AM


Visibility: 10 mi

Pressure: 29.92 "Hg

Humidity: 59%

Dew point: 37 °F

Location of PensacolaLocation

Historic Weather in Pensacola — Graph

°F

Pensacola temperature yesterday

Maximum temperature yesterday: 62 °F (at 12:53 PM)
Minimum temperature yesterday: 39 °F (at 5:53 AM)
Average temperature yesterday: 52 °F

Past Weeks' High & Low Weather Summary

 TemperatureHumidityPressure
High71 °F (Jan 21, 1:53 PM)100% (Jan 12, 9:00 AM)30.42 "Hg (Jan 12, 9:00 AM)
Low36 °F (Jan 16, 6:53 AM)22% (Jan 18, 2:53 PM)29.79 "Hg (Jan 23, 12:53 PM)
Average52 °F76%30.13 "Hg
* Reported Jan 11 12:53 AM — Jan 26 12:53 AM, Pensacola, Weather by CustomWeather, © 2014

Note: Actual official high and low records may vary slightly from our data, if they occured in-between our weather recording intervals... More about our weather records

Advertising

Pensacola weather history for previous 24 hours

 ConditionsComfort  
Time TempWeatherWind HumidityBarometerVisibility
12:53 AM
Jan 26
52 °FClear.10 mph64%29.90 "Hg10 mi
11:53 PM
Jan 25
53 °FClear.10 mph69%29.89 "Hg10 mi
10:53 PM55 °FClear.8 mph64%29.88 "Hg10 mi
9:53 PM56 °FClear.13 mph62%29.87 "Hg10 mi
8:53 PM57 °FClear.14 mph64%29.86 "Hg10 mi
7:53 PM57 °FClear.14 mph69%29.87 "Hg10 mi
6:53 PM58 °FClear.17 mph70%29.87 "Hg10 mi
5:53 PM58 °FClear.16 mph72%29.86 "Hg10 mi
4:53 PM59 °FClear.20 mph69%29.87 "Hg10 mi
3:53 PM60 °FSunny.22 mph60%29.88 "Hg10 mi
2:53 PM61 °FSunny.22 mph58%29.90 "Hg10 mi
1:53 PM62 °FSunny.17 mph52%29.91 "Hg10 mi
12:53 PM62 °FSunny.16 mph44%29.93 "Hg10 mi
11:53 AM61 °FSunny.15 mph54%29.98 "Hg10 mi
10:53 AM58 °FSunny.15 mph56%30.01 "Hg10 mi
9:53 AM56 °FSunny.10 mph60%30.05 "Hg10 mi
8:53 AM50 °FSunny.10 mph74%30.05 "Hg10 mi
7:53 AM43 °FSunny.5 mph93%30.06 "Hg8 mi
6:53 AM40 °FSunny.3 mph89%30.04 "Hg8 mi
5:53 AM39 °FSunny.5 mph93%30.05 "Hg10 mi
4:53 AM42 °FClear.6 mph85%30.05 "Hg10 mi
3:53 AM41 °FClear.No wind86%30.05 "Hg10 mi
2:53 AM43 °FClear.5 mph79%30.07 "Hg10 mi
Weather by CustomWeather, © 2014

See weather overviewHow to use our weather pages